• In Uzbekistan
  • List of Countries
  • For 7 days
  • Water Temperature
  • Satellite Maps
  • Weather Map
  • Weather Widgets
  • user-avatar
    Login

    Hourly Weather Yerevan

    Today, 17 October, Tuesday

    Time Temperature Precipitation Wind Pressure Humidity
    00:00 +7°C° 0 mm 2 mps 688 mmHg 56%
    01:00 +7°C° 0 mm 2 mps 688 mmHg 56%
    02:00 +6°C° 0 mm 2 mps 689 mmHg 56%
    03:00 +6°C° 0 mm 5 mps 688 mmHg 55%
    04:00 +6°C° 0 mm 4 mps 689 mmHg 57%
    05:00 +5°C° 0 mm 3 mps 689 mmHg 59%
    06:00 +6°C° 0 mm 2 mps 689 mmHg 61%
    07:00 +8°C° 0 mm 3 mps 690 mmHg 55%
    08:00 +8°C° 0 mm 4 mps 690 mmHg 50%
    09:00 +11°C° 0 mm 6 mps 691 mmHg 47%
    10:00 +13°C° 0 mm 6 mps 691 mmHg 44%
    11:00 +14°C° 0 mm 6 mps 691 mmHg 41%
    12:00 +15°C° 0 mm 6 mps 691 mmHg 38%
    13:00 +16°C° 0 mm 6 mps 691 mmHg 37%
    14:00 +16°C° 0 mm 6 mps 691 mmHg 35%
    15:00 +17°C° 0 mm 5 mps 691 mmHg 34%
    16:00 +15°C° 0 mm 5 mps 691 mmHg 39%
    17:00 +14°C° 0 mm 4 mps 691 mmHg 44%
    18:00 +12°C° 0 mm 3 mps 691 mmHg 49%
    19:00 +13°C° 0 mm 2 mps 692 mmHg 52%
    20:00 +12°C° 0 mm 2 mps 692 mmHg 56%
    21:00 +10°C° 0 mm 2 mps 692 mmHg 59%
    22:00 +10°C° 0 mm 2 mps 692 mmHg 61%
    23:00 +9°C° 0 mm 2 mps 692 mmHg 64%

    Tomorrow, 18 October, Wednesday

    Time Temperature Precipitation Wind Pressure Humidity
    00:00 +9°C° 0 mm 2 mps 692 mmHg 66%
    01:00 +10°C° 0 mm 1 mps 692 mmHg 67%
    02:00 +10°C° 0 mm 1 mps 692 mmHg 69%
    03:00 +9°C° 0 mm 1 mps 692 mmHg 70%
    04:00 +9°C° 0 mm 1 mps 692 mmHg 71%
    05:00 +9°C° 0 mm 1 mps 692 mmHg 72%
    06:00 +9°C° 0 mm 1 mps 692 mmHg 73%
    07:00 +11°C° 0 mm 1 mps 692 mmHg 66%
    08:00 +13°C° 0 mm 1 mps 693 mmHg 58%
    09:00 +15°C° 0 mm 1 mps 693 mmHg 50%
    10:00 +16°C° 0 mm 1 mps 693 mmHg 46%
    11:00 +18°C° 0 mm 1 mps 693 mmHg 43%
    12:00 +19°C° 0 mm 1 mps 693 mmHg 39%
    13:00 +20°C° 0 mm 1 mps 693 mmHg 37%
    14:00 +19°C° 0 mm 2 mps 692 mmHg 36%
    15:00 +20°C° 0 mm 2 mps 692 mmHg 35%
    16:00 +19°C° 0 mm 1 mps 692 mmHg 40%
    17:00 +16°C° 0 mm 1 mps 692 mmHg 45%
    18:00 +14°C° 0 mm 1 mps 692 mmHg 50%
    19:00 +14°C° 0 mm 1 mps 692 mmHg 52%
    20:00 +13°C° 0 mm 1 mps 693 mmHg 55%
    21:00 +13°C° 0 mm 1 mps 693 mmHg 57%
    22:00 +13°C° 0 mm 1 mps 693 mmHg 59%
    23:00 +12°C° 0 mm 1 mps 693 mmHg 62%

    Day after tomorrow, 19 October, Thursday

    Time Temperature Precipitation Wind Pressure Humidity
    00:00 +12°C° 0 mm 1 mps 693 mmHg 64%
    01:00 +12°C° 0 mm 1 mps 693 mmHg 66%
    02:00 +11°C° 0 mm 1 mps 693 mmHg 67%
    03:00 +11°C° 0 mm 1 mps 693 mmHg 69%
    04:00 +11°C° 0 mm 1 mps 693 mmHg 71%
    05:00 +10°C° 0 mm 1 mps 693 mmHg 72%
    06:00 +10°C° 0 mm 1 mps 693 mmHg 74%
    07:00 +12°C° 0 mm 1 mps 693 mmHg 64%
    08:00 +14°C° 0 mm 1 mps 694 mmHg 54%
    09:00 +16°C° 0 mm 1 mps 694 mmHg 44%
    10:00 +18°C° 0 mm 1 mps 694 mmHg 39%
    11:00 +19°C° 0 mm 2 mps 693 mmHg 35%
    12:00 +20°C° 0 mm 2 mps 693 mmHg 30%
    13:00 +20°C° 0 mm 2 mps 693 mmHg 29%
    14:00 +20°C° 0 mm 2 mps 692 mmHg 28%
    15:00 +20°C° 0 mm 2 mps 692 mmHg 27%
    16:00 +19°C° 0 mm 1 mps 692 mmHg 31%
    17:00 +16°C° 0 mm 1 mps 692 mmHg 35%
    18:00 +14°C° 0 mm 0 mps 691 mmHg 39%
    19:00 +13°C° 0 mm 0 mps 691 mmHg 40%
    20:00 +14°C° 0 mm 1 mps 692 mmHg 42%
    21:00 +13°C° 0 mm 1 mps 692 mmHg 43%
    22:00 +13°C° 0 mm 1 mps 692 mmHg 43%
    23:00 +13°C° 0 mm 1 mps 691 mmHg 44%

    20 October, Friday

    Time Temperature Precipitation Wind Pressure Humidity
    00:00 +12°C° 0 mm 1 mps 691 mmHg 44%
    01:00 +12°C° 0 mm 1 mps 691 mmHg 43%
    02:00 +12°C° 0 mm 1 mps 691 mmHg 43%
    03:00 +11°C° 0 mm 1 mps 691 mmHg 42%
    04:00 +11°C° 0 mm 1 mps 690 mmHg 43%
    05:00 +11°C° 0 mm 1 mps 690 mmHg 43%
    06:00 +10°C° 0 mm 1 mps 690 mmHg 43%
    07:00 +13°C° 0 mm 1 mps 691 mmHg 39%
    08:00 +15°C° 0 mm 1 mps 691 mmHg 34%
    09:00 +18°C° 0 mm 1 mps 692 mmHg 30%
    10:00 +19°C° 0 mm 1 mps 691 mmHg 28%
    11:00 +20°C° 0 mm 1 mps 691 mmHg 27%
    12:00 +21°C° 0 mm 1 mps 691 mmHg 26%
    13:00 +21°C° 0 mm 1 mps 691 mmHg 25%
    14:00 +21°C° 0 mm 1 mps 690 mmHg 25%
    15:00 +21°C° 0 mm 2 mps 690 mmHg 25%
    16:00 +20°C° 0 mm 1 mps 690 mmHg 29%
    17:00 +18°C° 0 mm 1 mps 690 mmHg 33%
    18:00 +15°C° 0 mm 1 mps 690 mmHg 37%
    19:00 +15°C° 0 mm 1 mps 690 mmHg 38%
    20:00 +14°C° 0 mm 1 mps 690 mmHg 40%
    21:00 +14°C° 0 mm 1 mps 691 mmHg 41%
    22:00 +13°C° 0 mm 1 mps 690 mmHg 42%
    23:00 +12°C° 0 mm 0 mps 690 mmHg 43%

    21 October, Saturday

    Time Temperature Precipitation Wind Pressure Humidity
    00:00 +11°C° 0 mm 0 mps 690 mmHg 45%
    01:00 +11°C° 0 mm 0 mps 690 mmHg 46%
    02:00 +11°C° 0 mm 0 mps 690 mmHg 47%
    03:00 +10°C° 0 mm 0 mps 690 mmHg 48%
    04:00 +10°C° 0 mm 0 mps 690 mmHg 50%
    05:00 +10°C° 0 mm 0 mps 690 mmHg 52%
    06:00 +9°C° 0 mm 0 mps 690 mmHg 55%
    07:00 +12°C° 0 mm 0 mps 691 mmHg 48%
    08:00 +14°C° 0 mm 0 mps 691 mmHg 40%
    09:00 +18°C° 0 mm 1 mps 692 mmHg 33%
    10:00 +19°C° 0 mm 1 mps 691 mmHg 31%
    11:00 +20°C° 0 mm 1 mps 691 mmHg 29%
    12:00 +21°C° 0 mm 1 mps 691 mmHg 27%
    13:00 +21°C° 0 mm 1 mps 691 mmHg 26%
    14:00 +22°C° 0 mm 1 mps 690 mmHg 26%
    15:00 +22°C° 0 mm 1 mps 690 mmHg 25%
    16:00 +20°C° 0 mm 1 mps 690 mmHg 29%
    17:00 +18°C° 0 mm 1 mps 690 mmHg 33%
    18:00 +15°C° 0 mm 1 mps 689 mmHg 37%
    19:00 +15°C° 0 mm 1 mps 690 mmHg 38%
    20:00 +14°C° 0 mm 1 mps 690 mmHg 39%
    21:00 +14°C° 0 mm 1 mps 690 mmHg 40%
    22:00 +13°C° 0 mm 1 mps 690 mmHg 41%
    23:00 +13°C° 0 mm 1 mps 689 mmHg 42%

    22 October, Sunday

    Time Temperature Precipitation Wind Pressure Humidity
    00:00 +12°C° 0 mm 1 mps 689 mmHg 43%
    01:00 +12°C° 0 mm 1 mps 689 mmHg 43%
    02:00 +12°C° 0 mm 1 mps 689 mmHg 43%
    03:00 +11°C° 0 mm 1 mps 689 mmHg 43%
    04:00 +11°C° 0 mm 1 mps 689 mmHg 43%
    05:00 +11°C° 0 mm 1 mps 689 mmHg 42%
    06:00 +11°C° 0 mm 1 mps 688 mmHg 42%
    07:00 +13°C° 0 mm 1 mps 689 mmHg 37%
    08:00 +15°C° 0 mm 1 mps 689 mmHg 33%
    09:00 +17°C° 0 mm 2 mps 689 mmHg 29%
    10:00 +18°C° 0 mm 2 mps 689 mmHg 27%
    11:00 +19°C° 0 mm 2 mps 688 mmHg 25%
    12:00 +20°C° 0 mm 3 mps 688 mmHg 23%
    13:00 +20°C° 0 mm 3 mps 688 mmHg 23%
    14:00 +20°C° 0 mm 3 mps 687 mmHg 23%
    15:00 +20°C° 0 mm 3 mps 687 mmHg 23%
    16:00 +19°C° 0 mm 3 mps 687 mmHg 26%
    17:00 +17°C° 0 mm 2 mps 687 mmHg 29%
    18:00 +15°C° 0 mm 2 mps 687 mmHg 32%
    19:00 +15°C° 0 mm 2 mps 687 mmHg 33%
    20:00 +14°C° 0 mm 1 mps 687 mmHg 34%
    21:00 +14°C° 0 mm 1 mps 687 mmHg 35%
    22:00 +13°C° 0 mm 1 mps 687 mmHg 35%
    23:00 +13°C° 0 mm 1 mps 687 mmHg 36%
    Show more